EW5015 Weather Reports


time (UTC)temp
C
wind
direction
speed
KPH
gust
KPH
rain 1hr
cm
rain 24hr
cm
rain mn
cm
humidity
%
barometer
mb
20260505171620 11 33 3.2 6.4 0.00 0.56 0.56 81 1011.4
20260505171118 11 31 4.8 6.4 0.00 0.56 0.56 81 1011.7
20260505170615 11 66 4.8 6.4 0.00 0.56 0.56 81 1011.6
20260505170111 11 51 11.3 12.9 0.00 0.56 0.56 81 1011.7
20260505165606 11 33 6.4 8.0 0.00 0.56 0.56 82 1011.6
20260505165102 11 17 8.0 12.9 0.00 0.56 0.56 81 1011.5
20260505164558 11 46 4.8 12.9 0.00 0.56 0.56 82 1011.3
20260505164056 11 58 11.3 16.1 0.05 0.56 0.56 79 1010.9
20260505163554 11 48 12.9 14.5 0.05 0.56 0.56 78 1011.0
20260505163050 11 57 8.0 14.5 0.00 0.53 0.53 77 1010.7
20260505162544 11 54 8.0 14.5 0.00 0.53 0.53 75 1010.9
20260505162041 12 75 8.0 17.7 0.00 0.53 0.53 73 1010.9
20260505161538 12 55 9.7 14.5 0.00 0.53 0.53 73 1010.4
20260505161035 12 26 14.5 16.1 0.00 0.53 0.53 71 1010.4
20260505160533 12 84 6.4 19.3 0.00 0.53 0.53 72 1010.3
20260505153009 12 41 8.0 12.9 0.00 0.53 0.53 71 1010.4
20260505152506 12 66 17.7 19.3 0.00 0.53 0.53 70 1010.1
20260505152002 12 58 6.4 19.3 0.00 0.53 0.53 72 1010.4
20260505151457 11 52 6.4 19.3 0.00 0.53 0.53 71 1010.4
20260505150955 12 47 14.5 24.1 0.00 0.53 0.53 72 1010.6
20260505150451 12 22 8.0 20.9 0.00 0.53 0.53 74 1010.7
20260505140421 10 62 9.7 14.5 0.00 0.53 0.53 87 1010.0
20260505124835 9 93 4.8 6.4 0.13 0.51 0.51 96 1008.5
20260505124332 9 66 4.8 8.0 0.23 0.51 0.51 95 1009.5
20260505123827 9 49 11.3 14.5 0.23 0.51 0.51 95 1010.0
20260505123324 9 16 3.2 14.5 0.30 0.48 0.48 95 1010.3
20260505122820 9 54 4.8 12.9 0.36 0.46 0.46 96 1010.4
20260505122318 9 41 12.9 16.1 0.36 0.43 0.43 95 1010.5
20260505121814 9 32 3.2 11.3 0.05 0.38 0.38 95 1010.6
20260505121311 9 57 4.8 8.0 0.05 0.38 0.38 94 1010.5
20260505120808 9 39 4.8 9.7 0.36 0.38 0.38 93 1010.5
20260505120303 9 42 9.7 19.3 0.61 0.36 0.36 93 1010.1
20260505115802 9 57 11.3 14.5 0.48 0.30 0.30 93 1010.0
20260505115300 10 60 8.0 20.9 0.43 0.25 0.25 93 1009.9
20260505114757 10 27 3.2 14.5 0.23 0.20 0.20 93 1010.4
20260505114253 10 352 4.8 11.3 0.05 0.18 0.18 92 1011.0
20260505113750 10 292 4.8 12.9 0.53 0.18 0.18 90 1010.6
20260505113247 10 50 3.2 11.3 0.89 0.15 0.15 89 1009.9
20260505112742 11 19 12.9 19.3 0.30 0.05 0.05 84 1009.3
20260505112241 11 28 11.3 19.3 0.00 0.00 0.00 80 1009.6
20260505111741 11 20 3.2 20.9 0.00 0.00 0.00 81 1009.6
20260505111237 11 36 9.7 9.7 0.00 0.00 0.00 82 1009.2
20260505110733 11 62 4.8 9.7 0.05 0.00 0.00 83 1009.0
20260505110231 11 28 6.4 11.3 0.05 0.00 0.00 82 1008.9
20260505102206 13 44 8.0 29.0 0.00 0.00 0.00 75 1008.5
20260505101705 13 29 19.3 29.0 0.00 0.00 0.00 73 1008.1
20260505101201 13 29 14.5 24.1 0.00 0.00 0.00 78 1008.2
20260505100657 13 30 8.0 20.9 0.00 0.00 0.00 84 1008.1
20260505100154 13 16 11.3 25.7 0.00 0.00 0.00 83 1008.0
20260505095649 13 32 20.9 29.0 0.00 0.00 0.00 86 1008.0
20260505095148 14 51 11.3 19.3 0.00 0.00 0.00 89 1007.9
20260505094643 14 21 9.7 11.3 0.00 0.00 0.00 88 1007.9
20260505094140 14 12 9.7 16.1 0.00 0.00 0.00 91 1007.8
20260505093636 15 33 8.0 16.1 0.00 0.00 0.00 91 1007.7
20260505093134 15 33 6.4 11.3 0.00 0.00 0.00 90 1007.5
20260505092630 15 358 8.0 14.5 0.00 0.00 0.00 88 1007.7
20260505092129 15 13 11.3 17.7 0.00 0.00 0.00 86 1007.2
20260505091625 16 12 4.8 14.5 0.00 0.00 0.00 86 1007.5
20260505091124 16 42 4.8 11.3 0.00 0.00 0.00 85 1007.4
20260505090621 16 32 4.8 12.9 0.00 0.00 0.00 84 1007.2
20260505090119 16 0 0.0 4.8 0.00 0.00 0.00 84 1007.1
20260505085616 16 68 3.2 8.0 0.00 0.00 0.00 83 1006.6
20260505085115 16 27 6.4 6.4 0.00 0.00 0.00 81 1006.6
20260505084612 16 51 4.8 4.8 0.00 0.00 0.00 80 1006.5
20260505084110 16 29 3.2 4.8 0.00 0.00 0.00 81 1006.4
20260505083608 16 51 3.2 3.2 0.00 0.00 0.00 81 1006.1
20260505083104 16 76 1.6 3.2 0.00 0.00 0.00 80 1005.9
20260505082559 16 55 3.2 4.8 0.00 0.00 0.00 80 1005.9
20260505082057 17 47 4.8 4.8 0.00 0.00 0.00 78 1005.8
20260505081553 17 84 1.6 3.2 0.00 0.00 0.00 76 1006.0
20260505081050 17 102 0.0 1.6 0.00 0.00 0.00 75 1005.9
20260505080546 17 92 3.2 3.2 0.00 0.00 0.00 74 1005.7
20260505080043 17 69 3.2 4.8 0.00 0.00 0.00 74 1005.6
20260505075539 17 95 1.6 3.2 0.00 0.00 0.00 74 1006.1
20260505075036 17 89 1.6 3.2 0.00 0.00 0.00 74 1006.1
20260505074533 17 102 0.0 3.2 0.00 0.00 0.00 73 1006.3
20260505074030 17 124 0.0 1.6 0.00 0.00 0.00 73 1006.3
20260505073527 17 60 1.6 3.2 0.00 0.00 0.00 72 1006.4
20260505073026 17 215 1.6 3.2 0.00 0.00 0.00 72 1006.8
20260505072521 17 44 1.6 3.2 0.00 0.00 0.00 72 1006.7
20260505072018 17 63 4.8 4.8 0.00 0.00 0.00 71 1006.7
20260505071513 18 38 4.8 9.7 0.00 0.00 0.00 70 1006.6
20260505071012 18 46 14.5 17.7 0.00 0.00 0.00 70 1006.6
20260505070509 18 37 6.4 19.3 0.00 0.00 0.00 69 1006.8
20260505070005 18 43 4.8 8.0 0.00 0.00 0.00 68 1006.7
20260505065500 18 44 8.0 14.5 0.00 0.00 0.00 67 1006.8
20260505064957 18 302 12.9 14.5 0.00 0.00 0.00 66 1007.0
20260505064454 18 22 11.3 17.7 0.00 0.00 0.00 65 1006.8
20260505063952 19 54 22.5 32.2 0.00 0.00 0.00 64 1006.8
20260505063449 20 4 11.3 24.1 0.00 0.00 0.00 62 1006.7
20260505062945 21 41 3.2 11.3 0.00 0.00 0.00 65 1006.5
20260505062442 21 245 8.0 11.3 0.00 0.00 0.00 65 1005.2
20260505061939 21 154 1.6 11.3 0.00 0.00 0.00 65 1005.0
20260505061437 21 163 3.2 12.9 0.00 0.00 0.00 65 1005.1
20260505060934 21 159 1.6 22.5 0.00 0.00 0.00 64 1005.0
20260505060432 21 223 4.8 17.7 0.00 0.00 0.00 64 1005.0
20260505055927 21 221 6.4 16.1 0.00 0.00 0.00 64 1005.0
20260505055424 21 212 12.9 19.3 0.00 0.00 0.00 64 1005.0
20260505054920 21 216 9.7 24.1 0.00 0.00 0.00 63 1004.8
20260505054418 21 211 11.3 22.5 0.00 0.00 0.00 63 1004.7
20260505053916 21 153 8.0 14.5 0.00 0.00 0.00 63 1004.6
20260505053413 21 228 11.3 19.3 0.00 0.00 0.00 63 1004.8
20260505052910 21 147 6.4 9.7 0.00 0.00 0.00 63 1004.7
20260505052406 21 228 12.9 24.1 0.00 0.00 0.00 62 1004.6
20260505051904 21 214 8.0 14.5 0.00 0.00 0.00 62 1004.1
20260505051401 21 187 6.4 19.3 0.00 0.00 0.00 62 1003.9
20260505050859 22 237 11.3 16.1 0.00 0.00 0.00 62 1003.9
20260505050357 22 207 12.9 16.1 0.00 0.00 0.00 62 1003.9
20260505041325 22 163 6.4 11.3 0.00 0.05 0.05 61 1003.8
20260505040821 22 159 6.4 14.5 0.00 0.05 0.05 61 1003.8
20260505040319 22 155 3.2 11.3 0.00 0.05 0.05 61 1003.9
20260505035816 22 143 3.2 12.9 0.00 0.05 0.05 61 1003.9
20260505035311 22 186 3.2 12.9 0.00 0.05 0.05 61 1004.1
20260505034809 22 177 9.7 14.5 0.00 0.05 0.05 60 1004.1
20260505034305 22 180 1.6 9.7 0.00 0.05 0.05 60 1004.3
20260505033803 22 153 3.2 9.7 0.00 0.05 0.05 60 1004.3
20260505033259 22 141 4.8 11.3 0.00 0.05 0.05 59 1004.3
20260505032758 23 178 4.8 22.5 0.00 0.05 0.05 59 1004.3
20260505032253 23 171 6.4 9.7 0.00 0.05 0.05 59 1004.2
20260505031751 23 161 6.4 9.7 0.00 0.05 0.05 59 1004.3
20260505031247 23 213 3.2 9.7 0.00 0.05 0.05 59 1004.2
20260505030744 23 195 3.2 11.3 0.00 0.05 0.05 58 1004.1
20260505030240 23 193 1.6 8.0 0.00 0.05 0.05 58 1004.4
20260505025736 23 166 3.2 8.0 0.00 0.05 0.05 58 1004.1
20260505025234 23 161 3.2 14.5 0.00 0.05 0.05 58 1004.1
20260505024732 23 187 4.8 6.4 0.00 0.05 0.05 57 1004.3
20260505024229 23 129 4.8 16.1 0.00 0.05 0.05 57 1004.0
20260505023726 23 180 3.2 11.3 0.00 0.05 0.05 57 1004.1
20260505023224 23 200 4.8 14.5 0.00 0.05 0.05 56 1003.9
20260505022721 23 219 3.2 8.0 0.00 0.05 0.05 57 1003.8
20260505022218 23 149 6.4 16.1 0.00 0.05 0.05 57 1003.6
20260505021714 23 175 4.8 8.0 0.00 0.05 0.05 57 1003.4
20260505021212 23 163 8.0 9.7 0.00 0.05 0.05 56 1003.4
20260505020707 23 123 3.2 8.0 0.00 0.05 0.05 57 1003.4
20260505020202 23 167 6.4 9.7 0.00 0.05 0.05 56 1003.2
20260505015700 23 142 4.8 8.0 0.00 0.05 0.05 56 1003.0
20260505015156 24 181 1.6 9.7 0.00 0.05 0.05 56 1003.1
20260505014654 23 155 4.8 6.4 0.00 0.05 0.05 57 1003.1
20260505014150 23 216 8.0 14.5 0.00 0.05 0.05 57 1002.9
20260505013648 23 165 8.0 8.0 0.00 0.05 0.05 57 1002.9
20260505013145 23 162 1.6 6.4 0.00 0.05 0.05 57 1002.9
20260505012643 23 176 4.8 6.4 0.00 0.05 0.05 57 1002.8
20260505012140 23 121 1.6 6.4 0.00 0.05 0.05 57 1002.8
20260505011636 24 162 4.8 8.0 0.00 0.05 0.05 57 1002.8
20260505011134 24 144 1.6 3.2 0.00 0.05 0.05 57 1002.5
20260505010633 24 177 4.8 14.5 0.00 0.05 0.05 57 1002.7
20260505010130 24 137 3.2 4.8 0.00 0.05 0.05 57 1002.7
20260505005626 24 164 3.2 6.4 0.00 0.05 0.05 57 1002.6
20260505005124 24 181 4.8 6.4 0.00 0.05 0.05 57 1002.6
20260505004621 24 184 1.6 4.8 0.00 0.05 0.05 56 1002.6
20260505004118 25 96 1.6 8.0 0.00 0.05 0.05 56 1002.5
20260505003615 25 181 3.2 8.0 0.00 0.05 0.05 56 1002.3
20260505003112 25 199 8.0 11.3 0.00 0.05 0.05 55 1002.3
20260505002608 25 225 3.2 6.4 0.00 0.05 0.05 56 1002.1
20260505002107 25 184 3.2 14.5 0.00 0.05 0.05 55 1002.4
20260505001603 25 195 3.2 6.4 0.00 0.05 0.05 54 1002.2
20260505001101 26 228 3.2 4.8 0.00 0.05 0.05 54 1002.4
20260505000558 25 169 3.2 14.5 0.00 0.05 0.05 54 1002.3
20260505000055 25 196 8.0 12.9 0.00 0.05 0.05 54 1002.2
20260504235552 26 196 3.2 11.3 0.00 0.05 0.05 54 1002.2
20260504235049 26 189 3.2 8.0 0.00 0.05 0.05 54 1002.4
20260504234545 26 231 11.3 12.9 0.00 0.05 0.05 53 1002.4
20260504234043 26 212 6.4 9.7 0.00 0.05 0.05 53 1002.3
20260504233538 26 160 4.8 12.9 0.00 0.05 0.05 52 1002.4
20260504233035 26 154 3.2 4.8 0.00 0.05 0.05 53 1002.3
20260504232532 26 215 6.4 12.9 0.00 0.05 0.05 52 1002.5
20260504232030 26 166 3.2 11.3 0.00 0.05 0.05 52 1002.5
20260504231526 26 227 14.5 16.1 0.00 0.05 0.05 52 1002.5
20260504231022 26 237 6.4 17.7 0.00 0.05 0.05 52 1002.6
20260504230519 26 161 3.2 17.7 0.00 0.05 0.05 51 1002.7
20260504230018 26 175 6.4 22.5 0.00 0.05 0.05 51 1002.7
20260504225514 26 211 9.7 16.1 0.00 0.05 0.05 53 1002.8
20260504225012 26 190 3.2 9.7 0.00 0.05 0.05 52 1002.7
20260504224508 26 205 8.0 8.0 0.00 0.05 0.05 52 1002.7
20260504224005 26 180 6.4 14.5 0.00 0.05 0.05 51 1002.6
20260504223502 26 211 4.8 11.3 0.00 0.05 0.05 51 1002.8
20260504222957 26 200 8.0 25.7 0.00 0.05 0.05 51 1002.9
20260504222455 26 218 6.4 9.7 0.00 0.05 0.05 52 1003.0
20260504221952 26 245 3.2 20.9 0.00 0.05 0.05 53 1003.0
20260504221449 26 164 4.8 19.3 0.00 0.05 0.05 53 1002.9
20260504220946 26 222 6.4 20.9 0.00 0.05 0.05 52 1002.8
20260504220442 27 231 8.0 14.5 0.00 0.05 0.05 53 1003.0
20260504215940 27 171 6.4 8.0 0.00 0.05 0.05 52 1003.2
20260504215436 27 176 4.8 14.5 0.00 0.05 0.05 54 1003.0
20260504214933 27 233 8.0 19.3 0.00 0.05 0.05 54 1003.0
20260504214429 27 217 4.8 8.0 0.00 0.05 0.05 52 1003.0
20260504213926 27 240 9.7 9.7 0.00 0.05 0.05 52 1003.0
20260504213422 27 202 4.8 17.7 0.00 0.05 0.05 53 1003.0
20260504212920 27 195 4.8 11.3 0.00 0.05 0.05 53 1003.0
20260504212415 27 164 4.8 9.7 0.00 0.05 0.05 53 1003.0
20260504211913 27 227 8.0 12.9 0.00 0.05 0.05 54 1003.0
20260504211409 27 210 4.8 16.1 0.00 0.05 0.05 54 1003.2
20260504210907 27 246 6.4 12.9 0.00 0.05 0.05 58 1003.2
20260504210404 27 172 4.8 14.5 0.00 0.05 0.05 59 1003.2
20260504205900 26 229 9.7 12.9 0.00 0.05 0.05 60 1003.2
20260504205358 26 206 6.4 14.5 0.00 0.05 0.05 62 1003.1
20260504204857 26 157 4.8 6.4 0.00 0.05 0.05 63 1003.2
20260504204354 26 140 1.6 14.5 0.00 0.05 0.05 63 1003.5
20260504203854 25 185 3.2 8.0 0.00 0.05 0.05 65 1003.6
20260504203350 25 204 6.4 8.0 0.00 0.05 0.05 63 1003.5
20260504202846 25 223 8.0 16.1 0.00 0.05 0.05 65 1003.6
20260504202343 25 227 3.2 6.4 0.00 0.05 0.05 65 1003.8
20260504201839 25 179 4.8 11.3 0.00 0.05 0.05 65 1003.8
20260504201337 25 258 3.2 6.4 0.00 0.05 0.05 63 1003.7
20260504200835 25 149 3.2 8.0 0.00 0.05 0.05 64 1004.0
20260504200331 23 196 9.7 14.5 0.00 0.05 0.05 64 1004.0
20260504195827 23 166 3.2 4.8 0.00 0.05 0.05 67 1004.1
20260504195323 23 150 3.2 8.0 0.00 0.05 0.05 70 1004.0
20260504194820 23 167 8.0 8.0 0.00 0.05 0.05 71 1004.2
20260504194316 22 143 4.8 9.7 0.00 0.05 0.05 71 1004.3
20260504193812 22 17 0.0 6.4 0.00 0.05 0.05 73 1004.3
20260504193310 22 160 6.4 9.7 0.00 0.05 0.05 71 1004.3
20260504192808 22 150 4.8 8.0 0.00 0.05 0.05 72 1004.4
20260504192306 21 177 3.2 8.0 0.00 0.05 0.05 74 1004.6
20260504191804 21 77 3.2 6.4 0.00 0.05 0.05 75 1004.6
20260504191301 20 89 1.6 9.7 0.00 0.05 0.05 76 1004.9
20260504190757 20 144 1.6 6.4 0.00 0.05 0.05 78 1004.4
20260504190253 18 138 4.8 4.8 0.00 0.05 0.05 81 1004.1
20260504185750 18 134 3.2 6.4 0.00 0.05 0.05 82 1004.0
20260504185247 17 124 3.2 8.0 0.05 0.05 0.05 83 1003.8
20260504184743 17 101 4.8 6.4 0.05 0.05 0.05 85 1003.9
20260504184239 17 128 4.8 8.0 0.00 0.03 0.03 84 1004.9
20260504183734 17 155 3.2 6.4 0.00 0.03 0.03 82 1005.6
20260504183232 18 140 3.2 8.0 0.00 0.03 0.03 81 1005.5
20260504182730 18 118 3.2 8.0 0.00 0.03 0.03 80 1005.9
20260504182227 18 137 3.2 4.8 0.00 0.03 0.03 79 1005.7
20260504181724 18 135 0.0 8.0 0.00 0.03 0.03 81 1005.7
20260504181221 18 154 1.6 8.0 0.00 0.03 0.03 82 1005.6
20260504180721 18 117 4.8 6.4 0.00 0.03 0.03 83 1005.6
20260504180219 17 168 3.2 4.8 0.00 0.03 0.03 84 1005.5
20260504175716 17 163 4.8 8.0 0.00 0.03 0.03 83 1005.5
20260504175212 17 106 4.8 4.8 0.00 0.03 0.03 83 1005.5
20260504174711 17 113 4.8 11.3 0.00 0.03 0.03 82 1005.5
20260504174208 17 133 0.0 9.7 0.00 0.03 0.03 81 1005.8
20260504173704 17 122 0.0 6.4 0.00 0.03 0.03 79 1005.7
20260504173202 17 141 4.8 4.8 0.00 0.03 0.03 79 1005.9
20260504172658 17 127 1.6 4.8 0.00 0.03 0.03 80 1005.8
20260504172155 17 78 4.8 11.3 0.00 0.03 0.03 78 1005.9